This is the latest recevied weather packets stored in our database for station/object KC1TEM-13. If no packets are shown the sender has not sent any weather packets the latest 1 day(s).
| Time | Temp. | Humidity | Pressure | Rain* | Wind** | Luminosity | Snow |
|---|---|---|---|---|---|---|---|
| 1777985624 | 18.33° C | 55% | 1009.7 hPa | 0 mm | 0.89 m/s, 242° | 389 W/m² | - |
| 1777985320 | 17.78° C | 56% | 1009.8 hPa | 0 mm | 0.45 m/s, 330° | 394 W/m² | - |
| 1777985017 | 17.78° C | 55% | 1009.9 hPa | 0 mm | 0.89 m/s, 200° | 423 W/m² | - |
| 1777984713 | 17.22° C | 56% | 1009.4 hPa | 0 mm | 0.45 m/s, 192° | 294 W/m² | - |
| 1777984410 | 17.22° C | 55% | 1009.5 hPa | 0 mm | 1.79 m/s, 198° | 178 W/m² | - |
| 1777984106 | 17.78° C | 54% | 1009.6 hPa | 0 mm | 2.24 m/s, 233° | 197 W/m² | - |
| 1777983804 | 17.78° C | 55% | 1009.8 hPa | 0 mm | 1.34 m/s, 199° | 385 W/m² | - |
| 1777983500 | 17.78° C | 56% | 1009.6 hPa | 0 mm | 0 m/s | 205 W/m² | - |
| 1777983197 | 16.67° C | 57% | 1009.6 hPa | 0 mm | 1.34 m/s, 239° | 258 W/m² | - |
| 1777982893 | 16.67° C | 58% | 1009.5 hPa | 0 mm | 1.79 m/s, 199° | 105 W/m² | - |
| 1777982589 | 16.67° C | 57% | 1009.3 hPa | 0 mm | 1.34 m/s, 242° | 90 W/m² | - |
| 1777982288 | 16.67° C | 57% | 1009.3 hPa | 0 mm | 2.24 m/s, 242° | 256 W/m² | - |
| 1777981986 | 16.67° C | 58% | 1009.4 hPa | 0 mm | 0.45 m/s, 181° | 265 W/m² | - |
| 1777981683 | 16.11° C | 59% | 1009.7 hPa | 0 mm | 1.79 m/s, 198° | 290 W/m² | - |
| 1777981380 | 15.56° C | 60% | 1009.5 hPa | 0 mm | 0.45 m/s, 141° | 237 W/m² | - |
| 1777981076 | 15.56° C | 59% | 1009.6 hPa | 0 mm | 1.34 m/s, 213° | 113 W/m² | - |
| 1777980772 | 16.11° C | 59% | 1009.5 hPa | 0 mm | 0 m/s | 257 W/m² | - |
| 1777980468 | 15.56° C | 60% | 1009.5 hPa | 0 mm | 0.89 m/s, 213° | 260 W/m² | - |
| 1777980166 | 15° C | 61% | 1009.7 hPa | 0 mm | 1.34 m/s, 161° | 213 W/m² | - |
| 1777979867 | 15° C | 62% | 1009.7 hPa | 0 mm | 1.34 m/s, 193° | 188 W/m² | - |
| 1777979563 | 14.44° C | 63% | 1009.5 hPa | 0 mm | 0.45 m/s, 196° | 113 W/m² | - |
| 1777979259 | 13.89° C | 64% | 1009.6 hPa | 0 mm | 0.45 m/s, 204° | 69 W/m² | - |
| 1777978957 | 13.89° C | 65% | 1009.5 hPa | 0 mm | 0.89 m/s, 212° | 61 W/m² | - |
| 1777978653 | 13.89° C | 65% | 1009.4 hPa | 0 mm | 1.34 m/s, 200° | 53 W/m² | - |
| 1777978348 | 13.33° C | 65% | 1009.2 hPa | 0 mm | 0.89 m/s, 193° | 46 W/m² | - |
* Rain latest hour (hover to see other rain measurements)
** Current wind speed in m/s (hover to see current wind gust speed)